Location: Bonningues
(50.7927°N, 2.0150°E)
Time: 06:29:07
(UTC+00:00)

ATLAS 5 CENTAUR R/B - Pass Details

Date: 08 August 2020
Orbit: 533 x 1125 km, 63.4° (Epoch: 19 September)

Event Time Altitude Azimuth Distance (km) Brightness Sun altitude
Rises 20:43:13 0° 311° (NW) 3,291 7.6 -11.0°
Reaches altitude 10° 20:45:40 10° 303° (WNW) 2,450 6.1 -11.3°
Maximum altitude 20:50:49 35° 239° (WSW) 1,453 3.6 -11.9°
Drops below altitude 10° 20:56:39 10° 177° (S) 2,794 4.5 -12.6°
Enters shadow 20:57:16 - 175° (S) 3,000 4.6 -12.6°
